Flag for U.S.A. Weather past 2 weeks in Fayetteville, North Carolina, U.S.A.

Now
88 °F

Scattered clouds.


Feels Like: 96 °F
Forecast: 71 / 91 °F
Wind: 7 mph from Northeast

Location: Fayetteville Regional Airport

Current Time: Aug 20, 2014 at 1:20:31 PM

Latest Report: Aug 20, 2014 at 12:53 PM


Visibility: 10 mi

Pressure: 29.96 "Hg

Humidity: 61%

Dew point: 73 °F

Location of FayettevilleLocation

Historic Weather in Fayetteville — Graph

°F

Fayetteville temperature yesterday

Maximum temperature yesterday: 90 °F (at 12:53 PM)
Minimum temperature yesterday: 74 °F (at 2:53 AM)
Average temperature yesterday: 80 °F

Past Weeks' High & Low Weather Summary

 TemperatureHumidityPressure
High94 °F (Aug 6, 3:53 PM)100% (Aug 12, 8:53 AM)30.10 "Hg (Aug 12, 8:53 AM)
Low62 °F (Aug 15, 6:53 AM)32% (Aug 6, 4:53 PM)29.75 "Hg (Aug 18, 7:53 PM)
Average78 °F74%29.94 "Hg
* Reported Aug 5 11:53 AM — Aug 20 11:53 AM, Fayetteville, Weather by CustomWeather, © 2014

Note: Actual official high and low records may vary slightly from our data, if they occured in-between our weather recording intervals... More about our weather records

Advertising

Fayetteville weather history for previous 24 hours

 ConditionsComfort  
Time TempWeatherWind HumidityBarometerVisibility
11:53 AM
Aug 20
87 °FPassing clouds.No wind63%29.97 "Hg10 mi
10:53 AM84 °FSunny.No wind67%29.97 "Hg10 mi
9:53 AM82 °FSunny.No wind77%29.95 "Hg10 mi
8:53 AM79 °FPassing clouds.3 mph84%29.93 "Hg10 mi
7:53 AM76 °FSunny.No wind91%29.91 "Hg8 mi
6:53 AM74 °FClear.6 mph94%29.91 "Hg9 mi
5:53 AM73 °FClear.5 mph97%29.89 "Hg9 mi
4:53 AM74 °FPassing clouds.6 mph94%29.88 "Hg9 mi
3:53 AM73 °FPassing clouds.3 mph97%29.86 "Hg7 mi
2:53 AM74 °FClear.No wind94%29.86 "Hg10 mi
1:53 AM74 °FClear.3 mph94%29.85 "Hg10 mi
12:53 AM75 °FClear.No wind90%29.85 "Hg10 mi
11:53 PM
Aug 19
75 °FClear.No wind90%29.86 "Hg10 mi
10:53 PM76 °FClear.No wind91%29.86 "Hg10 mi
9:53 PM75 °FPassing clouds.No wind90%29.85 "Hg10 mi
8:53 PM76 °FScattered clouds.No wind91%29.84 "Hg10 mi
7:53 PM78 °FScattered clouds.5 mph79%29.81 "Hg10 mi
7:04 PM77 °FCloudy.7 mph85%29.84 "Hg10 mi
6:53 PM77 °FThundershowers. More clouds than sun.6 mph85%29.82 "Hg8 mi
5:53 PM79 °FThundershowers. Mostly cloudy.13 mph79%29.80 "Hg10 mi
5:00 PM87 °FThundershowers. Partly sunny.6 mph59%29.80 "Hg10 mi
3:53 PM89 °FMostly cloudy.5 mph55%29.78 "Hg10 mi
2:53 PM90 °FBroken clouds.6 mph50%29.79 "Hg10 mi
1:53 PM88 °FScattered clouds.5 mph52%29.81 "Hg10 mi
Weather by CustomWeather, © 2014

See weather overviewHow to use our weather pages